AirNav   Everest Fuels
 
 642 users online  

46KS Hidden Valley Airport
Valley Center, Kansas, USA

GOING TO VALLEY CENTER?


FAA INFORMATION EFFECTIVE 26 JANUARY 2023

Location

FAA Identifier: 46KS
Lat/Long: 37-50-00.2700N 097-21-47.7600W
37-50.004500N 097-21.796000W
37.8334083,-97.3632667
(estimated)
Elevation: 1345 ft. / 410 m (estimated)
Variation: 07E (1985)
Time zone: UTC -6 (UTC -5 during Daylight Saving Time)
Zip code: 67147

Airport Operations

Airport use: Private use. Permission required prior to landing
Activation date: 09/1962
Control tower: no
ARTCC: KANSAS CITY CENTER
FSS: WICHITA FLIGHT SERVICE STATION
Attendance: UNATNDD
Wind indicator: yes
Segmented circle: no

Airport Communications

WX ASOS at AAO (8 nm SE): 134.025 (316-636-2541)
WX AWOS-3PT at BEC (11 nm SE): 119.45 (316-515-7116)
WX ASOS at ICT (11 nm S): PHONE 316-945-8022
WX AWOS-2 at 1K1 (12 nm E): 118.3 (316-530-6004)
WX AWOS-3PT at EWK (14 nm N): 123.875 (316-283-8789)
WX AWOS-3P at 3AU (17 nm SE): 124.175 (316-733-6696)

Nearby radio navigation aids

VOR radial/distance  VOR name  Freq  Var
ICTr056/11.7WICHITA VORTAC113.8007E
HUTr106/28.7HUTCHINSON VOR/DME116.8004E

Airport Services

Runway Information

Runway 17/35

Dimensions: 2434 x 50 ft. / 742 x 15 m
Surface: turf
RUNWAY 17  RUNWAY 35
Latitude: 37-50.205000N37-49.804000N
Longitude: 097-21.802000W097-21.790000W
Elevation: 1345.0 ft.1345.0 ft.
Traffic pattern: leftleft
Runway heading: 172 magnetic, 179 true352 magnetic, 359 true
Obstructions: 50 ft. pline, 1500 ft. from runway50 ft. pline, 700 ft. from runway

Airport Ownership and Management from official FAA records

Ownership: Privately-owned
Owner: CENTER AVIATION INC.
158 S. MILES AVENUE
VALLEY CENTER, KS 67147
Phone 316-755-0265
Manager: HOWARD BOTTS, PRESIDENT
158 S. MILES AVENUE
VALLEY CENTER, KS 67147
Phone 316-259-8073

Airport Operational Statistics

Aircraft based on the field: 5
Single engine airplanes: 5
    

Additional Remarks

FOR CD CTC WICHITA APCH AT 316-350-1520.

Instrument Procedures

There are no published instrument procedures at 46KS.

Some nearby airports with instrument procedures:

KAAO - Colonel James Jabara Airport (8 nm SE)
KBEC - Beech Factory Airport (11 nm SE)
KICT - Wichita Dwight D Eisenhower National Airport (11 nm S)
KCEA - Cessna Aircraft Field Airport (12 nm SE)
1K1 - Lloyd Stearman Field Airport (12 nm E)
KIAB - Mc Connell Air Force Base (13 nm S)
KEWK - Newton City/County Airport (14 nm N)
3AU - Augusta Municipal Airport (17 nm SE)
 
Loc | Ops | Rwys | IFR | FBO | Links
Com | Nav | Svcs | Stats | Notes
Area around 46KS (Hidden Valley Airport)
 
Road maps at: MapQuest Bing Google
 
Aerial photo
No photo
 
Sectional chart

 
Airport distance calculator
Flying to Hidden Valley Airport? Find the distance to fly.

From to 46KS

Sunrise and sunset
Times for 02-Feb-2023
 Local
(UTC-6)
 Zulu
(UTC)
Morning civil twilight07:0613:06
Sunrise07:3413:34
Sunset17:5323:53
Evening civil twilight18:2000:20

Current date and time
Zulu (UTC)  02-Feb-2023 10:51:08
Local (UTC-6)  02-Feb-2023 04:51:08
 
METAR
KAAO 
9nm SE 
020954Z AUTO 23005KT 10SM CLR M06/M11 A3024 RMK AO2 SLP256 T10561111
KBEC 
11nm SE 
021035Z AUTO 23003KT 10SM CLR M07/M11 A3023 RMK AO2 T10661106 FZRANO
KICT 
11nm S 
020953Z 00000KT 10SM FEW150 SCT250 M08/M12 A3023 RMK AO2 SLP254 T10831117
KEWK 
13nm N 
020956Z AUTO 23006KT 10SM CLR M07/M10 A3023 RMK AO2 SLP251 T10671100 FZRANO
KIAB 
14nm S 
020955Z AUTO 00000KT 10SM CLR M07/M11 A3021 RMK AO2 SLP249 T10681107
K3AU 
17nm SE 
021035Z AUTO 00000KT 10SM CLR M07/M12 A3025 RMK AO2
TAF
KICT 
11nm S 
020537Z 0206/0306 VRB04KT P6SM SCT200 FM021900 33008KT P6SM FEW250 FM022100 35011KT P6SM SKC FM030500 01010KT P6SM FEW250
KIAB 
14nm S 
021000Z 0210/0316 25006KT 9999 FEW250 QNH3021INS BECMG 0217/0218 33012KT 9999 SKC QNH3025INS BECMG 0220/0221 35012G22KT 9999 SKC QNH3027INS BECMG 0301/0302 35012KT 9999 SKC QNH3035INS BECMG 0306/0307 01006KT 9999 SKC QNH3045INS TX09/0221Z TNM07/0212Z
NOTAMs
Click for the latest NOTAMs
NOTAMs are issued by the DoD/FAA and will open in a separate window not controlled by AirNav.

 

 
 

Would you like to see your business listed on this page?

 If your business provides an interesting product or service to pilots, flight crews, aircraft, or users of the Hidden Valley Airport, you should consider listing it here.  To start the listing process, click on the button below
 
Add a business
 

Other Pages about Hidden Valley Airport

Update a link
 
Copyright © AirNav, LLC. All rights reserved. Privacy Policy  Contact